Regional Weather Roundup
Issued by NWS

Home | Current Version | Previous Version | Text Only | Print | Product List | Glossary On
Versions: 1 2 3 4 5 6 7 8 9 10 11 12 13 14 15 16 17 18 19 20 21 22 23 24 25 26 27 28 29 30 31 32 33 34 35 36 37 38 39 40 41 42 43 44 45 46 47 48 49 50
000
ASUS43 KLMK 032002
RWRKY
KENTUCKY REGIONAL WEATHER ROUNDUP
NATIONAL WEATHER SERVICE LOUISVILLE KY
400 PM EDT THU SEP 03 2015

NOTE "FAIR" INDICATES FEW OR NO CLOUDS BELOW 12,000 FEET
WITH NO SIGNIFICANT WEATHER AND/OR OBSTRUCTIONS TO VISIBILITY.

KYZ001>023-026-027-061>063-070>075-032100-
WESTERN AND SOUTH CENTRAL KENTUCKY

CITY           SKY/WX    TMP DP  RH WIND       PRES   REMARKS
PADUCAH        MOSUNNY   92  67  43 VRB3      29.96F HX  95
HENDERSON      MOSUNNY   90  68  48 NE3       29.95F HX  93
OWENSBORO      MOSUNNY   93  69  45 W5        29.97F HX  98
HOPKINSVILLE   SUNNY     92  65  41 NW5       29.95F HX  94
BOWLING GREEN  MOSUNNY   92  63  38 S5        29.97F HX  93
GLASGOW        SUNNY     92  60  34 CALM      29.98F HX  91
$$

KYZ024-025-028>034-038-045-046-053-032100-
NORTH CENTRAL KENTUCKY

CITY           SKY/WX    TMP DP  RH WIND       PRES   REMARKS
LOUISVILLE/SDF MOSUNNY   91  65  41 SW3       29.96F HX  93
LOUISVILLE/LOU SUNNY     91  64  40 CALM      29.97F HX  92
FORT KNOX      MOSUNNY   89  66  47 CALM      29.97F HX  91
$$

KYZ035>037-039>044-047>052-055>060-089>105-032100-
NORTHEAST KENTUCKY

CITY           SKY/WX    TMP DP  RH WIND       PRES   REMARKS
LEXINGTON      SUNNY     92  63  38 CALM      29.99F HX  93
COVINGTON      MOSUNNY   90  64  42 CALM      29.98F HX  91
FRANKFORT      SUNNY     91  64  40 N5        29.97F HX  92
$$

KYZ054-064>069-076>088-106>120-032100-
SOUTHEAST KENTUCKY

CITY           SKY/WX    TMP DP  RH WIND       PRES   REMARKS
JACKSON        MOSUNNY   86  67  52 VRB3      30.01F
LONDON         MOSUNNY   88  63  43 E5        30.00F
SOMERSET       NOT AVBL
MIDDLESBORO    SUNNY     88  67  48 NE5       30.00F HX  91
MONTICELLO     CLEAR     91  67  45 CALM      30.02F HX  94
$$




USA.gov is the U.S. government's official web portal to all federal, state and local government web resources and services.